This demonstration page uses our WeatherBlox Daily Observations layout. Learn more.

Left ArrowRight Arrow

Hourly Observations for May 21, 2017

Temp ( °F °C ) Dew Point ( °F °C ) Humidity (%) Winds ( mph kmh ) Pressure ( in mb ) Visibility ( mi km ) Precip ( " mm )
12:08 am 00:08 Cloudy 46 7.8 40 4.4 79 79 WNW 15 24 30 1016 10 16.0934 0 0
12:38 am 00:38 Cloudy 46 7.8 40 4.4 79 79 WNW 16 26 30 1016 10 16.0934 0 0
12:54 am 00:54 Cloudy 45 7.2 39 3.9 80 80 WNW 17 28 29.98 1015 10 16.0934 0 0
1:54 am 01:54 Cloudy 44 6.7 38 3.3 79 79 W 13 20 30 1016 10 16.0934 0 0
2:10 am 02:10 Partly Cloudy 43 6.1 38 3.3 82 82 WNW 13 20 30.03 1017 10 16.0934 0 0
2:54 am 02:54 Cloudy 43 6.1 38 3.3 82 82 W 13 20 30.02 1017 10 16.0934 0 0
3:54 am 03:54 Mostly Clear 42 5.6 37 2.8 82 82 W 10 17 30.04 1017 10 16.0934 0 0
4:08 am 04:08 Mostly Cloudy 43 6.1 37 2.8 80 80 W 12 19 30.06 1018 10 16.0934 0 0
4:26 am 04:26 Partly Cloudy 42 5.6 37 2.8 82 82 WNW 9 15 30.06 1018 10 16.0934 0 0
4:54 am 04:54 Clear 42 5.6 37 2.8 82 82 W 8 13 30.04 1017 10 16.0934 0 0
5:54 am 05:54 Clear 42 5.6 38 3.3 85 85 W 10 17 30.05 1018 10 16.0934 0 0
6:54 am 06:54 Sunny 44 6.7 37 2.8 76 76 W 10 17 30.08 1019 10 16.0934 0 0
7:54 am 07:54 Sunny 47 8.3 38 3.3 71 71 WNW 13 20 30.1 1019 10 16.0934 0 0
8:54 am 08:54 Sunny 50 10 39 3.9 66 66 WNW 13 20 30.11 1020 10 16.0934 0 0
9:54 am 09:54 Sunny 54 12.2 39 3.9 57 57 WNW 12 19 30.11 1020 10 16.0934 0 0
10:54 am 10:54 Sunny 57 13.9 38 3.3 49 49 WNW 16 26 30.14 1021 10 16.0934 0 0
11:54 am 11:54 Sunny 61 16.1 40 4.4 46 46 WNW 17 28 30.13 1020 10 16.0934 0 0
12:54 pm 12:54 Sunny 63 17.2 40 4.4 43 43 WNW 16 26 30.13 1020 10 16.0934 0 0
1:54 pm 13:54 Sunny 66 18.9 40 4.4 39 39 W 16 26 30.11 1020 10 16.0934 0 0
2:54 pm 14:54 Mostly Sunny 68 20 40 4.4 36 36 NW 17 28 30.1 1019 10 16.0934 0 0
3:54 pm 15:54 Mostly Cloudy 68 20 41 5 38 38 WNW 15 24 30.08 1019 10 16.0934 0 0
4:54 pm 16:54 Sunny 70 21.1 38 3.3 31 31 W 13 20 30.07 1018 10 16.0934 0 0
5:54 pm 17:54 Sunny 70 21.1 38 3.3 31 31 WNW 12 19 30.06 1018 10 16.0934 0 0
6:54 pm 18:54 Sunny 70 21.1 39 3.9 32 32 NNW 9 15 30.06 1018 10 16.0934 0 0
7:54 pm 19:54 Sunny 68 20 39 3.9 35 35 NW 3 6 30.06 1018 10 16.0934 0 0
8:54 pm 20:54 Clear 58 14.4 46 7.8 65 65 SSE 3 6 30.08 1019 10 16.0934 0 0
9:54 pm 21:54 Clear 57 13.9 43 6.1 60 60 SSE 3 6 30.09 1019 10 16.0934 0 0
10:54 pm 22:54 Clear 57 13.9 45 7.2 64 64 S 3 6 30.09 1019 10 16.0934 0 0
11:54 pm 23:54 Clear 54 12.2 46 7.8 75 75 SSE 5 7 30.09 1019 10 16.0934 0 0

Powered by AerisWeather